Location: Mahannah Oil Field
(37.4664°N, 96.6003°W)
Time: 08:46:56
(UTC+00:00)

Courier 1B - Pass Details

Date: 25 January 2021
Orbit: 962 x 1209 km, 28.3° (Epoch: 02 March)

Event Time Altitude Azimuth Distance (km) Brightness Sun altitude
Rises 10:50:14 0° 259° (W) 3,633 - -32.6°
Reaches altitude 10° 10:54:11 10° 236° (WSW) 2,690 - -31.8°
Maximum altitude 10:57:31 15° 205° (SSW) 2,385 - -31.2°
Exits shadow 10:59:36 13° 184° (S) 2,524 9.6 -30.8°
Drops below altitude 10° 11:00:53 10° 173° (S) 2,726 9.9 -30.5°
Sets 11:04:57 0° 151° (SSE) 3,713 10.9 -29.7°
